When you browse on this site, cookies collect data to enhance your experience and personalize the content and advertising you see.
Visit our Privacy Policy to learn more. By continuing to use the site, you agree to this use of cookies and data.
  • en Suisse
  • Liste des pays
  • À 7 jours
  • Température de l'eau
  • Carte satellitaire
  • Carte météo
  • Widgets météo
  • user-avatar
    Se connecter

    Météo par heure à Krasnyy Uryush

    Ce jour, 21 Janvier, Lundi

    Heure Température Précipitation Vent Pression Humidité
    00:00 -16°C° 0 mm 2 m/s 746 mmHg 98%
    01:00 -16°C° 0 mm 2 m/s 747 mmHg 98%
    02:00 -16°C° 0 mm 2 m/s 747 mmHg 97%
    03:00 -17°C° 0 mm 3 m/s 747 mmHg 97%
    04:00 -17°C° 0 mm 3 m/s 747 mmHg 97%
    05:00 -18°C° 0 mm 4 m/s 747 mmHg 96%
    06:00 -18°C° 0 mm 4 m/s 747 mmHg 96%
    07:00 -19°C° 0 mm 5 m/s 747 mmHg 96%
    08:00 -19°C° 0 mm 5 m/s 747 mmHg 95%
    09:00 -20°C° 0 mm 6 m/s 747 mmHg 94%
    10:00 -20°C° 0 mm 6 m/s 747 mmHg 94%
    11:00 -18°C° 0 mm 6 m/s 747 mmHg 93%
    12:00 -17°C° 0 mm 6 m/s 746 mmHg 92%
    13:00 -17°C° 0 mm 7 m/s 746 mmHg 92%
    14:00 -17°C° 0.1 mm 7 m/s 746 mmHg 91%
    15:00 -17°C° 0.1 mm 7 m/s 746 mmHg 90%
    16:00 -15°C° 0.1 mm 6 m/s 746 mmHg 90%
    17:00 -15°C° 0.2 mm 6 m/s 746 mmHg 91%
    18:00 -16°C° 0.2 mm 6 m/s 745 mmHg 91%
    19:00 -16°C° 0.2 mm 6 m/s 745 mmHg 92%
    20:00 -16°C° 0.3 mm 6 m/s 745 mmHg 92%
    21:00 -17°C° 0.3 mm 7 m/s 745 mmHg 93%
    22:00 -18°C° 0.3 mm 7 m/s 744 mmHg 93%
    23:00 -17°C° 0.4 mm 7 m/s 744 mmHg 93%

    Demain, 22 Janvier, Mardi

    Heure Température Précipitation Vent Pression Humidité
    00:00 -17°C° 0.4 mm 7 m/s 743 mmHg 93%
    01:00 -17°C° 0.4 mm 7 m/s 743 mmHg 92%
    02:00 -16°C° 0.4 mm 6 m/s 742 mmHg 92%
    03:00 -16°C° 0.4 mm 6 m/s 741 mmHg 92%
    04:00 -15°C° 0.4 mm 6 m/s 741 mmHg 91%
    05:00 -15°C° 0.2 mm 6 m/s 740 mmHg 91%
    06:00 -15°C° 0.2 mm 6 m/s 740 mmHg 92%
    07:00 -14°C° 0.2 mm 5 m/s 740 mmHg 92%
    08:00 -13°C° 0.2 mm 5 m/s 739 mmHg 93%
    09:00 -13°C° 0.2 mm 5 m/s 739 mmHg 93%
    10:00 -11°C° 0.2 mm 4 m/s 739 mmHg 93%
    11:00 -11°C° 0.2 mm 4 m/s 739 mmHg 93%
    12:00 -10°C° 0.2 mm 4 m/s 739 mmHg 93%
    13:00 -9°C° 0.2 mm 4 m/s 739 mmHg 92%
    14:00 -9°C° 0.1 mm 3 m/s 739 mmHg 93%
    15:00 -10°C° 0.1 mm 3 m/s 740 mmHg 93%
    16:00 -12°C° 0.1 mm 3 m/s 740 mmHg 94%
    17:00 -13°C° 0 mm 3 m/s 740 mmHg 94%
    18:00 -16°C° 0 mm 4 m/s 741 mmHg 95%
    19:00 -17°C° 0 mm 4 m/s 742 mmHg 95%
    20:00 -18°C° 0 mm 3 m/s 742 mmHg 96%
    21:00 -22°C° 0 mm 3 m/s 743 mmHg 98%
    22:00 -24°C° 0 mm 2 m/s 743 mmHg 99%
    23:00 -25°C° 0 mm 2 m/s 744 mmHg 99%

    Après-demain, 23 Janvier, Mercredi

    Heure Température Précipitation Vent Pression Humidité
    00:00 -26°C° 0 mm 2 m/s 744 mmHg 99%
    01:00 -27°C° 0 mm 2 m/s 745 mmHg 98%
    02:00 -27°C° 0 mm 2 m/s 746 mmHg 98%
    03:00 -27°C° 0 mm 2 m/s 746 mmHg 98%
    04:00 -29°C° 0 mm 3 m/s 747 mmHg 98%
    05:00 -29°C° 0 mm 3 m/s 747 mmHg 98%
    06:00 -29°C° 0 mm 3 m/s 747 mmHg 98%
    07:00 -29°C° 0 mm 3 m/s 748 mmHg 98%
    08:00 -29°C° 0 mm 3 m/s 749 mmHg 98%
    09:00 -29°C° 0 mm 3 m/s 749 mmHg 98%
    10:00 -29°C° 0 mm 3 m/s 750 mmHg 98%
    11:00 -27°C° 0 mm 3 m/s 750 mmHg 97%
    12:00 -27°C° 0 mm 3 m/s 751 mmHg 97%
    13:00 -26°C° 0 mm 3 m/s 751 mmHg 97%
    14:00 -27°C° 0 mm 3 m/s 752 mmHg 97%
    15:00 -27°C° 0 mm 3 m/s 752 mmHg 97%
    16:00 -29°C° 0 mm 3 m/s 753 mmHg 97%
    17:00 -29°C° 0 mm 3 m/s 753 mmHg 97%
    18:00 -30°C° 0 mm 3 m/s 754 mmHg 98%
    19:00 -30°C° 0 mm 3 m/s 754 mmHg 98%
    20:00 -30°C° 0 mm 3 m/s 755 mmHg 98%
    21:00 -29°C° 0 mm 3 m/s 755 mmHg 97%
    22:00 -29°C° 0 mm 4 m/s 755 mmHg 97%
    23:00 -29°C° 0 mm 4 m/s 756 mmHg 97%

    24 Janvier, Jeudi

    Heure Température Précipitation Vent Pression Humidité
    00:00 -29°C° 0 mm 4 m/s 756 mmHg 97%
    01:00 -29°C° 0 mm 4 m/s 756 mmHg 97%
    02:00 -29°C° 0 mm 4 m/s 756 mmHg 97%
    03:00 -29°C° 0 mm 4 m/s 756 mmHg 97%
    04:00 -30°C° 0 mm 4 m/s 757 mmHg 97%
    05:00 -30°C° 0 mm 4 m/s 757 mmHg 97%
    06:00 -30°C° 0 mm 4 m/s 757 mmHg 97%
    07:00 -30°C° 0 mm 4 m/s 757 mmHg 97%
    08:00 -29°C° 0 mm 4 m/s 757 mmHg 97%
    09:00 -29°C° 0 mm 5 m/s 757 mmHg 96%
    10:00 -28°C° 0 mm 5 m/s 756 mmHg 95%
    11:00 -27°C° 0 mm 5 m/s 756 mmHg 94%
    12:00 -26°C° 0 mm 5 m/s 756 mmHg 93%
    13:00 -24°C° 0 mm 5 m/s 756 mmHg 92%
    14:00 -24°C° 0 mm 5 m/s 755 mmHg 92%
    15:00 -22°C° 0 mm 5 m/s 754 mmHg 91%
    16:00 -21°C° 0 mm 5 m/s 754 mmHg 90%
    17:00 -21°C° 0.1 mm 5 m/s 753 mmHg 90%
    18:00 -20°C° 0.1 mm 5 m/s 752 mmHg 91%
    19:00 -20°C° 0.1 mm 6 m/s 752 mmHg 91%
    20:00 -18°C° 0.5 mm 6 m/s 751 mmHg 91%
    21:00 -18°C° 0.5 mm 7 m/s 750 mmHg 91%
    22:00 -17°C° 0.5 mm 7 m/s 748 mmHg 91%
    23:00 -17°C° 0.3 mm 7 m/s 748 mmHg 91%

    25 Janvier, Vendredi

    Heure Température Précipitation Vent Pression Humidité
    00:00 -17°C° 0.3 mm 7 m/s 747 mmHg 90%
    01:00 -17°C° 0.3 mm 7 m/s 746 mmHg 90%
    02:00 -17°C° 0.2 mm 7 m/s 745 mmHg 90%
    03:00 -17°C° 0.2 mm 6 m/s 745 mmHg 91%
    04:00 -17°C° 0.2 mm 6 m/s 744 mmHg 92%
    05:00 -17°C° 0.3 mm 6 m/s 744 mmHg 92%
    06:00 -17°C° 0.3 mm 5 m/s 743 mmHg 92%
    07:00 -17°C° 0.3 mm 5 m/s 743 mmHg 93%
    08:00 -17°C° 0.2 mm 5 m/s 743 mmHg 93%
    09:00 -15°C° 0.2 mm 5 m/s 743 mmHg 92%
    10:00 -15°C° 0.2 mm 5 m/s 743 mmHg 92%
    11:00 -17°C° 0.1 mm 5 m/s 743 mmHg 91%
    12:00 -17°C° 0.1 mm 5 m/s 743 mmHg 90%
    13:00 -18°C° 0.1 mm 5 m/s 743 mmHg 89%
    14:00 -19°C° 0 mm 5 m/s 744 mmHg 91%
    15:00 -20°C° 0 mm 4 m/s 745 mmHg 92%
    16:00 -22°C° 0 mm 4 m/s 745 mmHg 93%
    17:00 -23°C° 0 mm 4 m/s 746 mmHg 95%
    18:00 -24°C° 0 mm 3 m/s 747 mmHg 96%
    19:00 -25°C° 0 mm 3 m/s 748 mmHg 98%
    20:00 -26°C° 0 mm 3 m/s 748 mmHg 98%
    21:00 -25°C° 0 mm 2 m/s 749 mmHg 98%
    22:00 -26°C° 0 mm 2 m/s 749 mmHg 98%
    23:00 -26°C° 0 mm 2 m/s 750 mmHg 98%

    26 Janvier, Samedi

    Heure Température Précipitation Vent Pression Humidité
    00:00 -27°C° 0 mm 2 m/s 750 mmHg 98%
    01:00 -27°C° 0 mm 2 m/s 751 mmHg 98%
    02:00 -28°C° 0 mm 2 m/s 751 mmHg 98%
    03:00 -29°C° 0 mm 2 m/s 752 mmHg 99%
    04:00 -29°C° 0 mm 2 m/s 752 mmHg 99%
    05:00 -30°C° 0 mm 2 m/s 753 mmHg 99%
    06:00 -31°C° 0 mm 2 m/s 753 mmHg 99%
    07:00 -29°C° 0 mm 1 m/s 754 mmHg 99%
    08:00 -29°C° 0 mm 1 m/s 754 mmHg 99%
    09:00 -29°C° 0 mm 1 m/s 754 mmHg 98%
    10:00 -28°C° 0 mm 1 m/s 755 mmHg 98%
    11:00 -27°C° 0 mm 1 m/s 755 mmHg 97%
    12:00 -24°C° 0 mm 1 m/s 755 mmHg 96%
    13:00 -23°C° 0 mm 1 m/s 754 mmHg 95%
    14:00 -23°C° 0 mm 1 m/s 754 mmHg 96%
    15:00 -24°C° 0 mm 1 m/s 754 mmHg 96%
    16:00 -25°C° 0 mm 1 m/s 754 mmHg 97%
    17:00 -25°C° 0 mm 1 m/s 755 mmHg 96%
    18:00 -26°C° 0 mm 0 m/s 755 mmHg 96%
    19:00 -27°C° 0 mm 0 m/s 755 mmHg 95%
    20:00 -26°C° 0 mm 0 m/s 755 mmHg 95%
    21:00 -26°C° 0 mm 0 m/s 755 mmHg 94%
    22:00 -26°C° 0 mm 0 m/s 755 mmHg 94%
    23:00 -26°C° 0 mm 0 m/s 755 mmHg 93%
    Voir plus